www.pogodaiklimat.ru

Погода и климат >> Архив погоды >> Индия >> Surat


ПОГОДА в Surat

  • Прогноз погоды в Surat
  • Монитор погоды в Surat
  • Климат города

АРХИВ ПОГОДЫ в Surat

Время (UTC), дата Ветер
(напр.,м/с)
 
Видим.   Явления Облачность Т
(С)
Тd
(С)
f
(%)
Тe
(С)
Тes
(С)
Комфортность P
(гПа)
Po
(гПа)
Тmin
(С)
Tmax
(С)
R
(мм)
R24
(мм)
S
(см)
03 16.07 З 2 2000 м слабый дождь 10/8 300 м
[Frnb As op]
+25.8 +24.9 95 +37 +37 очень
душно
999.3 999.0 +25.2 131
06 16.07 ЮЗ 1 2000 м слабый дождь 10/8 300 м
[Frnb As op]
+26.0 +24.9 94 +37 +38 очень
душно
999.8 1000.0 6
09 16.07 ЮЗ 2 2000 м слабый дождь 10/8 300 м
[Frnb As op]
+26.2 +25.1 94 +38 +38 очень
душно
999.0 999.0 15
12 16.07 ЮЗ 3 2000 м слабая морось {дождь} 10/8 300 м
[Frnb As op]
+26.2 +25.1 94 +38 +38 очень
душно
997.8 998.0 +26.8 19
15 16.07 ЮЗ 3 2000 м в посл. час морось {дождь} 10/8 450 м
[Frnb As op]
+26.2 +25.1 94 +38 +38 очень
душно
999.5 1000.0 19
18 16.07 ЮЗ 2 2000 м в посл. час дождь 10/8 300 м
[Frnb As op]
+26.0 +25.4 97 +38 +38 очень
душно
1000.5 1001.0 19
21 16.07 ЮЗ 2 2000 м слабый дождь 10/8 300 м
[Frnb As op]
+25.8 +25.6 99 +38 +38 очень
душно
999.5 1000.0 21
00 17.07 ЮЗ 2 2000 м слабая морось {дождь} 10/8 360 м
[Frnb As op]
+26.0 +25.4 97 +38 +38 очень
душно
998.9 999.0 22
03 17.07 ЮЗ 2 2000 м мгла {дождь, морось} 10/8 450 м
[Frnb As op]
+26.4 +25.3 94 +38 +39 очень
душно
999.8 1000.0 +25.0 22
06 17.07 ЮЗ 3 2000 м мгла 10/8 360 м
[Frnb As op]
+27.6 +25.0 86 +40 +41 очень
душно
1000.4 1000.0
09 17.07 ЮЗ 3 4000 м 10/8 300 м
[Frnb As op]
+28.4 +25.9 86 +42 +43 опасность
перегрева
999.5 1000.0
12 17.07 ЮЗ 3 4000 м {дождь} 9/6 600 м
[Cu Sc Ac trans]
+27.8 +24.9 84 +40 +40 очень
душно
998.4 998.0 +28.8 0.1
15 17.07 ЮЗ 3 4000 м 9/5 600 м
[Cu Sc Ac trans]
+27.4 +25.7 90 +40 +40 очень
душно
999.8 1000.0 0.1
18 17.07 З 3 4000 м {дождь} 9/6 600 м
[Cu Sc Ac trans]
+26.6 +25.2 92 +38 +38 очень
душно
1000.7 1001.0 0.7
21 17.07 ЮЗ 3 4000 м {дождь} 8/5 600 м
[Sc Ac trans]
+26.4 +25.0 92 +38 +38 очень
душно
999.6 1000.0 0.9
00 18.07 ЮЗ 3 4000 м в посл. час дождь 10/8 300 м
[Frnb As op]
+25.8 +24.9 95 +37 +37 очень
душно
999.8 1000.0
03 18.07 ЮЗ 2 4000 м {дождь} 10/8 300 м
[Frnb As op]
+26.6 +25.2 92 +38 +39 очень
душно
1001.2 1001.0 +25.6 2
06 18.07 ЮЗ 2 4000 м 10/8 300 м
[Frnb As op]
+27.0 +25.9 94 +40 +41 очень
душно
1002.2 1002.0
09 18.07 ЮЗ 2 2000 м в посл. час дождь 10/8 300 м
[Frnb As op]
+26.6 +25.2 92 +38 +39 очень
душно
1002.1 1002.0 2
12 18.07 ЮЗ 2 2000 м {дождь} 10/8 300 м
[Frnb As op]
+27.4 +25.4 89 +40 +40 очень
душно
1000.9 1001.0 +27.8 3
15 18.07 З 1 4000 м {дождь} 9/5 600 м
[Cu Sc Ac trans]
+27.0 +24.7 87 +38 +38 очень
душно
1001.9 1002.0 3
18 18.07 ЮЗ 1 4000 м 10/8 450 м
[Frnb As op]
+26.6 +24.9 90 +38 +38 очень
душно
1003.1 1003.0 3
21 18.07 штиль 0 4000 м 10/8 450 м
[Frnb As op]
+26.8 +25.4 92 +39 +39 очень
душно
1001.9 1002.0 3
00 19.07 ЮЗ 1 4000 м в посл. час дождь 10/8 300 м
[Frnb As op]
+26.6 +25.5 94 +39 +39 очень
душно
1001.8 1002.0 3
03 19.07 ЮЗ 1 4000 м 10/8 300 м
[Frnb As op]
+27.4 +25.1 87 +39 +40 очень
душно
1003.1 1003.0 +26.2 3
06 19.07 ЮЗ 1 4000 м {дождь} 10/8 300 м
[Frnb As op]
+27.0 +24.4 86 +38 +39 очень
душно
1003.5 1004.0 0.5
09 19.07 ЮЗ 3 4000 м в посл. час морось 10/8 450 м
[Frnb As op]
+27.6 +24.7 84 +39 +40 очень
душно
1002.2 1002.0 0.5
12 19.07 ЮЗ 3 4000 м мгла 10/8 450 м
[Frnb As op]
+27.0 +24.4 86 +38 +38 очень
душно
1001.3 1001.0 +27.8 0.5
15 19.07 ЮЗ 3 4000 м в посл. час морось 10/8 450 м
[Frnb As op]
+26.8 +24.5 87 +38 +38 очень
душно
1002.0 1002.0 1
18 19.07 ЮЗ 2 2000 м слабый дождь 10/8 360 м
[Frnb As op]
+26.0 +24.9 94 +37 +37 очень
душно
1003.3 1003.0
21 19.07 штиль 0 2000 м слабая морось {дождь} 10/8 360 м
[Frnb As op]
+26.0 +25.1 95 +37 +37 очень
душно
1001.7 1002.0 5
00 20.07 штиль 0 2000 м в посл. час морось 10/8 360 м
[Frnb As op]
+26.0 +25.4 97 +38 +38 очень
душно
1000.7 1001.0
03 20.07 ЮЗ 2 2000 м в посл. час морось 10/8 360 м
[Frnb As op]
+26.6 +25.7 95 +39 +40 очень
душно
1001.7 1002.0 +25.4 6
06 20.07 ЮЗ 2 2000 м в посл. час морось 10/8 360 м
[Frnb As op]
+27.2 +25.5 90 +40 +41 очень
душно
1003.0 1003.0
09 20.07 З 1 2000 м слабый дождь 10/8 300 м
[Frnb As op]
+25.8 +25.2 96 +37 +38 очень
душно
1001.9 1002.0 37
12 20.07 З 1 4000 м {дождь} 10/5 300 м
[Frnb As op]
+26.6 +25.7 95 +39 +40 очень
душно
1001.0 1001.0 +27.5
15 20.07 З 2 2000 м слабый дождь 10/8 300 м
[Frnb As op]
+25.8 +24.9 95 +37 +37 очень
душно
1001.8 1002.0 49
18 20.07 З 2 4000 м {дождь} 10/8 300 м
[Frnb As op]
+26.6 +25.7 95 +39 +39 очень
душно
1002.8 1003.0
21 20.07 штиль 0 4000 м {дождь} 10/8 300 м
[Frnb As op]
+26.6 +25.7 95 +39 +39 очень
душно
1001.2 1001.0 57
00 21.07 ЮЗ 2 4000 м {дождь} 10/8 300 м
[Frnb As op]
+26.4 +25.5 95 +39 +39 очень
душно
1001.4 1001.0
03 21.07 ЮЗ 2 4000 м {дождь} 10/8 300 м
[Frnb As op]
+26.6 +25.7 95 +39 +40 очень
душно
1003.0 1003.0 +25.6 67
06 21.07 З 2 2000 м слабый дождь 10/8 300 м
[Frnb As op]
+25.6 +24.7 95 +36 +37 очень
душно
1004.1 1004.0
09 21.07 З 3 2000 м слабая морось {дождь} 10/6 300 м
[Frnb As op]
+25.8 +24.9 95 +37 +38 очень
душно
1003.3 1003.0 26
12 21.07 З 2 2000 м слабый дождь {морось} 10/8 300 м
[Frnb As op]
+25.0 +24.4 96 +35 +35 очень
душно
1002.2 1002.0 +27.0
15 21.07 З 2 2000 м слабый дождь 10/4 300 м
[St As op]
+26.0 +24.9 94 +37 +37 очень
душно
1003.1 1003.0 54
18 21.07 З 1 2000 м слабая морось {дождь} 10/6 300 м
[Frnb As op]
+26.0 +24.9 94 +37 +37 очень
душно
1004.0 1004.0
21 21.07 З 2 4000 м {дождь, морось} 10/6 300 м
[Frnb As op]
+26.6 +25.5 94 +39 +39 очень
душно
1002.2 1002.0 59
00 22.07 З 3 2000 м слабый дождь {морось} 10/8 300 м
[Frnb As op]
+26.4 +25.5 95 +39 +39 очень
душно
1001.7 1002.0
03 22.07 З 2 4000 м {дождь, морось} 10/6 300 м
[Frnb As op]
+27.0 +26.2 95 +41 +41 опасность
перегрева
1003.4 1003.0 +25.2 64
06 22.07 З 3 4000 м 10/6 600 м
[Cu Sc As op]
+27.8 +26.1 90 +42 +43 опасность
перегрева
1004.2 1004.0
09 22.07 З 3 4000 м 10/6 600 м
[St As op]
+28.8 +26.0 85 +43 +45 опасность
перегрева
1002.3 1002.0
12 22.07 ЮЗ 3 4000 м 9/5 450 м
[Frnb Ac trans]
+28.8 +26.0 85 +43 +44 опасность
перегрева
1001.6 1002.0 +29.0
15 22.07 ЮЗ 2 4000 м 10/8 300 м
[Frnb As op]
+27.8 +25.5 87 +41 +41 опасность
перегрева
1002.9 1003.0
18 22.07 ЮЗ 2 4000 м 9/6 300 м
[Frnb Ac trans]
+27.6 +25.9 90 +41 +41 опасность
перегрева
1003.0 1003.0
21 22.07 ЮЗ 2 4000 м 10/6 300 м
[Frnb As op]
+27.4 +26.0 92 +41 +41 опасность
перегрева
1001.3 1001.0
00 23.07 ЮЗ 2 4000 м в посл. час дождь 10/8 300 м
[Frnb As op]
+27.6 +26.2 92 +42 +42 опасность
перегрева
1001.3 1001.0

 

Местоположение метеостанции Surat (Gujarat, Индия): широта 21.20 долгота 72.83 высота над уровнем моря 12 м.

В архиве по умолчанию представлена погода в Surat за последнюю неделю. Архивные данные за месяц целиком и за предыдущие месяцы, начиная с января 2011 года, Вы можете получить, выбрав интересующий диапазон дат из раскрывающегося списка и нажав кнопку "Ввод!".


*Определитесь, кто Вы:
робот инопланетянин человек

Внимание! Время в таблицах - всемирное. Для получения местного времени необходимо прибавить поправку, которая в Surat равна 5.5 ч.

Смотрите также архив погоды в соседних городах и на ближайших метеорологических станциях:

Погода в Valsad (Gujarat, Индия) (65 км)
Погода в Bhaunagar (Gujarat, Индия) (89 км)
Погода в Mahuva (Gujarat, Индия) (110 км)
Погода в Baroda (Gujarat, Индия) (134 км)
Погода в Dahanu (Maharashtra, Индия) (137 км)
Погода в Nandurbar (Maharashtra, Индия) (148 км)
Погода в Vallabh Vidyanagar (Gujarat, Индия) (153 км)
Погода в Nashik (Maharashtra, Индия) (166 км)
Погода в Amreli (Gujarat, Индия) (173 км)
Погода в Malegaon (Maharashtra, Индия) (191 км)

Пояснения к столбцам:

Ветер - указаны скорость ветра в м/с - средняя за 10 мин, порывы в срок и между сроками (в фигурных скобках) и направление, откуда дует ветер: С - северный, СВ - северо-восточный, В - восточный, ЮВ - юго-восточный, Ю - южный, ЮЗ - юго-западный, З - западный, СЗ - северо-западный.
Видимость - горизонтальная дальность видимости в метрах или километрах. При видимости от 1 до 10 км при отсутствии осадков обычно наблюдается дымка, при ухудшении видимости до 1 км и менее - туман. В сухую погоду видимость может ухудшаться дымом, пылью или мглою.
Явления - указаны атмосферные явления, наблюдавшиеся в срок или в последний час перед сроком; фигурными скобками обозначены явления, наблюдавшиеся между сроками (за 1-3 часа до срока); квадратными скобками обозначены град или гололедные отложения с указанием их диаметра в мм.
Облачность - указаны через наклонную черту общая и нижняя облачность в баллах и высота нижней границы облаков в метрах; квадратными скобками обозначены формы облаков: Ci - перистые, Cs - перисто-слоистые, Cc - перисто-кучевые, Ac - высококучевые, As - высокослоистые, Sc - слоисто-кучевые, Ns - слоисто-дождевые, Cu - кучевые, Cb - кучево-дождевые. Подробнее классификацию облаков см. в Атласе облаков (PDF).
T - Температура воздуха - температура, измеренная на высоте 2 м над землей.
Td - Температура точки росы - температура, при понижении до которой содержащийся в воздухе водяной пар достигнет насыщения.
f - Относительная влажность воздуха - влажноcть воздуха, измеренная на высоте 2 м над землей.
Te - Эффективная температура - температура, которую ощущает одетый по сезону человек в тени. Характеристика душности погоды. При расчете учитывается влияние влажности воздуха и скорости ветра на теплоощущения человека.
Tes - Эффективная температура на солнце - температура, которую ощущает человек, с поправкой на солнечный нагрев. Характеристика знойности погоды. Зависит от высоты солнца над горизонтом, облачности и скорости ветра. Ночью, в пасмурную погоду, а также при ветре 12 м/с и более поправка равна нулю.
P - Атмосферное давление - приведенное к уровню моря атмосферное давление.
Po - Атмосферное давление - измеренное на уровне метеостанции атмосферное давление.
Tmin - Минимальная температура - минимум температуры воздуха на высоте 2 м над землей.
Tmax - Максимальная температура - максимум температуры воздуха на высоте 2 м над землей.
R - Количество осадков - Количество выпавших осадков за период времени, мм. При наведении курсора мыши на число - период времени, за который выпало указанное количество осадков.
R24 - Количество осадков - Количество выпавших осадков за 24 часа, мм.
S - Снежный покров - Высота снежного покрова, см. При наведении курсора мыши на число - состояние снежного покрова и степень покрытия местности в баллах.